Weather reports worldwide

Advertisment
Jamestown, nd, United States of America (2074583): temperature & dewpoint: 13.08.2018 14:00:00 - 19.08.2018 14:00:00 (CDT)Jamestown, nd, United States of America (2074583): wind speed & gusts: 13.08.2018 14:00:00 - 19.08.2018 14:00:00 (CDT)Jamestown, nd, United States of America (2074583): wind direction: 13.08.2018 14:00:00 - 19.08.2018 14:00:00 (CDT)Jamestown, nd, United States of America (2074583): reduced air pressure: 13.08.2018 14:00:00 - 19.08.2018 14:00:00 (CDT)Jamestown, nd, United States of America (2074583): visibility: 13.08.2018 14:00:00 - 19.08.2018 14:00:00 (CDT)Jamestown, nd, United States of America (2074583): precipitation: 13.08.2018 14:00:00 - 19.08.2018 14:00:00 (CDT)
Date & Time tt [°C] td [°C] ff [km/h] ff [kn] fx [km/h] fx [kn] dd ppp [hPa] vv [km] rr [mm]
19.08.2018 14:00:00 20,0 13,3 22 12 - - N 1016,6 8 -
19.08.2018 13:00:00 19,4 13,9 26 14 - - N 1016,5 6 -
19.08.2018 12:00:00 18,9 14,4 22 12 - - N 1016,1 4,8 -
19.08.2018 11:00:00 17,8 13,9 21 11 - - N 1015,6 4,8 -
19.08.2018 10:00:00 17,2 14,4 15 8 - - NNE 1015,1 6 -
19.08.2018 09:00:00 17,2 16,1 21 11 - - NNE 1013,9 8 0,3
19.08.2018 08:00:00 17,2 16,7 18 10 - - N 1013,1 4,8 0,0
19.08.2018 07:00:00 17,8 17,2 21 11 - - N 1012,3 16 2,8
19.08.2018 06:00:00 17,8 17,2 21 11 - - WNW 1012,5 4,8 1,3
19.08.2018 05:00:00 18,9 18,3 18 10 - - NW 1012,8 6 6,1
19.08.2018 04:00:00 18,9 18,3 22 12 65 35 W 1012,5 4,8 2,5
19.08.2018 03:00:00 21,7 20,0 15 8 - - S 1009,4 16 -
19.08.2018 02:00:00 21,7 20,0 5 3 - - SW 1009,4 16 -
19.08.2018 01:00:00 21,7 20,0 11 6 - - S 1009,6 16 -
19.08.2018 00:00:00 22,2 20,0 13 7 - - S 1009,8 16 -
18.08.2018 23:00:00 22,8 20,0 15 8 - - S 1010,2 16 -
18.08.2018 22:00:00 22,8 20,0 15 8 - - SSE 1010,4 16 -
18.08.2018 21:00:00 23,9 20,0 13 7 - - SE 1010,0 16 -
18.08.2018 20:00:00 25,6 20,0 16 9 - - SE 1010,2 16 -
18.08.2018 19:00:00 26,7 20,0 15 8 - - SSE 1010,9 16 -
18.08.2018 18:00:00 27,2 20,6 16 9 - - SSE 1010,8 16 -
18.08.2018 17:00:00 27,8 20,6 22 12 - - S 1011,5 16 -
18.08.2018 16:00:00 28,3 20,0 22 12 - - S 1012,0 16 -
18.08.2018 15:00:00 28,3 19,4 22 12 - - SSE 1012,5 16 -
18.08.2018 14:00:00 27,8 20,0 22 12 - - S 1013,2 16 -
18.08.2018 13:00:00 26,7 20,0 18 10 - - S 1014,1 16 -
18.08.2018 12:00:00 25,6 20,0 18 10 - - S 1014,4 16 -
18.08.2018 11:00:00 23,3 19,4 15 8 - - S 1015,1 16 -
18.08.2018 10:00:00 20,6 17,8 15 8 - - S 1015,6 16 -
18.08.2018 09:00:00 17,8 16,7 15 8 - - S 1015,7 16 -
18.08.2018 08:00:00 15,6 15,0 11 6 - - S 1016,0 16 -
18.08.2018 07:00:00 12,2 11,7 5 3 - - SSE 1016,5 16 -
18.08.2018 06:00:00 12,8 11,7 8 4 - - SSE 1016,5 16 -
18.08.2018 05:00:00 13,3 11,7 8 4 - - S 1016,8 16 -
18.08.2018 04:00:00 14,4 13,3 11 6 - - S 1017,0 16 -
18.08.2018 03:00:00 15,6 13,9 9 5 - - S 1017,3 16 -
18.08.2018 02:00:00 15,6 14,4 9 5 - - S 1017,6 16 -
18.08.2018 01:00:00 15,0 14,4 9 5 - - SSE 1017,7 15 -
18.08.2018 00:00:00 16,7 15,0 9 5 - - S 1017,9 16 -
17.08.2018 23:00:00 17,2 15,6 8 4 - - SSE 1018,2 16 -
17.08.2018 22:00:00 17,2 15,6 8 4 - - SE 1018,6 16 -
17.08.2018 21:00:00 18,9 16,7 9 5 - - SSE 1018,4 16 -
17.08.2018 20:00:00 21,1 17,8 5 3 - - SSE 1018,5 16 -
17.08.2018 19:00:00 23,9 18,9 8 4 - - SE 1018,8 15 -
17.08.2018 18:00:00 25,6 17,8 5 3 - - ESE 1018,8 16 -
17.08.2018 17:00:00 26,1 16,1 8 4 - - SE 1018,9 16 -
17.08.2018 16:00:00 25,6 16,7 8 4 - - SSE 1019,3 16 -
17.08.2018 15:00:00 25,6 16,7 9 5 - - S 1019,5 15 -
17.08.2018 14:00:00 23,9 16,7 8 4 - - SE 1020,0 13 -
17.08.2018 13:00:00 23,3 17,2 0 0 - - N 1020,2 15 -
17.08.2018 12:00:00 22,2 17,8 0 0 - - N 1020,3 13 -
17.08.2018 11:00:00 20,0 16,7 8 4 - - ESE 1020,7 13 -
17.08.2018 10:00:00 17,8 16,1 8 4 - - NE 1020,9 11 -
17.08.2018 09:00:00 15,0 15,0 5 3 - - N 1020,7 8 -
17.08.2018 08:00:00 13,3 13,3 0 0 - - N 1020,3 4,0 -
17.08.2018 07:00:00 12,2 11,7 5 3 - - - 1020,1 0,4 -
17.08.2018 06:00:00 12,8 12,8 0 0 - - N 1019,6 0,4 -
17.08.2018 05:00:00 13,3 12,8 8 4 - - N 1019,4 6 -
17.08.2018 04:00:00 13,3 12,8 11 6 - - N 1019,2 8 -
17.08.2018 03:00:00 14,4 13,9 8 4 - - NNW 1019,0 8 -
17.08.2018 02:00:00 14,4 13,3 9 5 - - NNW 1018,9 10 -
17.08.2018 01:00:00 15,6 14,4 0 0 - - N 1018,6 10 -
17.08.2018 00:00:00 16,7 14,4 8 4 - - NE 1018,6 11 -
16.08.2018 23:00:00 16,7 15,0 9 5 - - NE 1018,5 15 -
16.08.2018 22:00:00 17,8 14,4 9 5 - - NE 1018,0 16 -
16.08.2018 21:00:00 20,0 17,2 0 0 - - N 1016,9 16 -
16.08.2018 20:00:00 25,0 16,7 0 0 - - N 1016,1 16 -
16.08.2018 19:00:00 27,8 13,3 0 0 - - N 1016,2 16 -
16.08.2018 18:00:00 29,4 11,1 8 4 - - E 1016,2 16 -
16.08.2018 17:00:00 29,4 11,1 9 5 - - - 1016,2 16 -
16.08.2018 16:00:00 30,0 11,7 0 0 - - N 1016,0 16 -
16.08.2018 15:00:00 29,4 10,0 0 0 - - N 1015,6 16 -
16.08.2018 14:00:00 28,3 12,2 5 3 - - N 1015,8 16 -
16.08.2018 13:00:00 27,2 13,9 0 0 - - N 1015,9 16 -
16.08.2018 12:00:00 26,1 17,8 5 3 - - - 1016,2 16 -
16.08.2018 11:00:00 24,4 18,3 5 3 - - - 1016,4 16 -
16.08.2018 10:00:00 21,1 16,1 5 3 - - WNW 1016,3 16 -
16.08.2018 09:00:00 17,8 14,4 0 0 - - N 1016,3 16 -
16.08.2018 08:00:00 14,4 13,3 0 0 - - N 1015,8 16 -
16.08.2018 07:00:00 11,1 10,6 0 0 - - N 1015,3 16 -
16.08.2018 06:00:00 11,1 10,6 0 0 - - N 1014,9 16 -
16.08.2018 05:00:00 11,1 10,6 9 5 - - ENE 1014,6 16 -
16.08.2018 04:00:00 11,7 11,1 0 0 - - N 1014,4 16 -
16.08.2018 03:00:00 12,2 11,7 0 0 - - N 1014,4 16 -
16.08.2018 02:00:00 12,8 11,7 5 3 - - SSE 1014,7 16 -
16.08.2018 01:00:00 13,3 11,1 0 0 - - N 1014,6 16 -
16.08.2018 00:00:00 13,3 11,7 0 0 - - N 1014,6 16 -
15.08.2018 23:00:00 13,9 12,2 0 0 - - N 1014,6 16 -
15.08.2018 22:00:00 16,1 12,2 0 0 - - N 1014,3 16 -
15.08.2018 21:00:00 17,8 12,8 8 4 - - SSE 1014,2 16 -
15.08.2018 20:00:00 21,7 15,0 8 4 - - SE 1013,8 16 -
15.08.2018 19:00:00 23,9 12,2 5 3 - - SE 1013,7 16 -
15.08.2018 18:00:00 25,0 10,0 8 4 - - SE 1014,2 16 -
15.08.2018 17:00:00 25,0 11,1 11 6 - - S 1014,2 16 -
15.08.2018 16:00:00 25,0 10,0 8 4 - - - 1014,6 16 -
15.08.2018 15:00:00 25,0 10,6 8 4 - - E 1014,9 16 -
15.08.2018 14:00:00 23,9 10,6 0 0 - - N 1015,5 16 -
15.08.2018 13:00:00 23,9 10,6 8 4 - - NE 1015,9 16 -
15.08.2018 12:00:00 22,8 10,6 9 5 - - E 1015,8 16 -
15.08.2018 11:00:00 20,6 11,1 0 0 - - N 1016,1 16 -
15.08.2018 10:00:00 18,3 11,7 8 4 - - SSW 1016,4 16 -
15.08.2018 09:00:00 16,1 12,2 0 0 - - N 1016,5 16 -
15.08.2018 08:00:00 11,1 10,6 0 0 - - N 1016,8 10 -
15.08.2018 07:00:00 8,3 7,8 0 0 - - N 1016,6 16 -
15.08.2018 06:00:00 8,3 7,2 5 3 - - N 1016,2 16 -
15.08.2018 05:00:00 8,9 8,3 0 0 - - N 1015,9 16 -
15.08.2018 04:00:00 8,9 8,3 0 0 - - N 1016,1 16 -
15.08.2018 03:00:00 10,0 8,9 0 0 - - N 1016,2 16 -
15.08.2018 02:00:00 10,0 8,9 0 0 - - N 1016,2 16 -
15.08.2018 01:00:00 11,1 9,4 0 0 - - N 1016,4 16 -
15.08.2018 00:00:00 11,7 10,0 0 0 - - N 1016,7 16 -
14.08.2018 23:00:00 12,8 11,1 5 3 - - NNW 1016,6 16 -
14.08.2018 22:00:00 13,9 12,2 5 3 - - E 1016,4 16 -
14.08.2018 21:00:00 16,1 12,8 0 0 - - N 1015,8 16 -
14.08.2018 20:00:00 18,3 13,3 5 3 - - NNW 1015,8 16 -
14.08.2018 19:00:00 19,4 11,1 8 4 - - N 1016,1 16 -
14.08.2018 18:00:00 - - - - - - - - - -
14.08.2018 17:00:00 - - - - - - - - - -
14.08.2018 16:00:00 - - - - - - - - - -
14.08.2018 15:00:00 21,1 10,0 9 5 - - N 1016,9 16 -
14.08.2018 14:00:00 21,1 10,0 11 6 - - NNE 1017,1 16 -
14.08.2018 13:00:00 20,0 10,0 13 7 - - N 1017,7 16 -
14.08.2018 12:00:00 18,9 10,0 15 8 - - N 1018,2 16 -
14.08.2018 11:00:00 17,8 10,6 11 6 - - N 1018,2 16 -
14.08.2018 10:00:00 16,7 10,0 15 8 - - NNE 1018,2 16 -
14.08.2018 09:00:00 15,6 10,6 11 6 - - N 1017,9 16 -
14.08.2018 08:00:00 13,9 10,6 9 5 - - N 1017,5 16 -
14.08.2018 07:00:00 13,9 10,0 13 7 - - N 1016,8 16 -
14.08.2018 06:00:00 15,0 10,6 16 9 - - N 1016,6 16 -
14.08.2018 05:00:00 16,1 13,3 13 7 - - N 1016,5 16 -
14.08.2018 04:00:00 16,1 14,4 11 6 - - NNW 1016,2 16 -
14.08.2018 03:00:00 16,1 14,4 9 5 - - N 1016,1 16 -
14.08.2018 02:00:00 16,7 14,4 15 8 - - NNW 1015,9 10 -
14.08.2018 01:00:00 16,7 14,4 15 8 - - NNW 1015,9 16 0,3
14.08.2018 00:00:00 16,7 14,4 9 5 - - NNW 1015,3 16 0,0
13.08.2018 23:00:00 17,2 13,3 11 6 - - N 1014,7 16 -
13.08.2018 22:00:00 18,3 14,4 18 10 - - NNW 1015,9 16 -
13.08.2018 21:00:00 18,9 12,8 16 9 - - N 1015,4 16 -
13.08.2018 20:00:00 22,2 13,3 24 13 - - N 1013,9 16 -
13.08.2018 19:00:00 24,4 15,0 13 7 - - N 1013,2 16 -
13.08.2018 18:00:00 27,2 15,0 16 9 - - N 1013,2 16 -
13.08.2018 17:00:00 28,9 16,7 21 11 - - N 1012,6 16 -
13.08.2018 16:00:00 29,4 18,3 16 9 - - N 1012,4 16 -
13.08.2018 15:00:00 29,4 19,4 15 8 - - NNE 1012,0 16 -
13.08.2018 14:00:00 28,9 20,0 16 9 - - NNW 1011,7 16 -

tt = temperature
td = dewpoint
ff = wind speed
fx = gusts
dd = wind direction
ppp = reduced air pressure
vv = visibility
rr = precipitation

Next stations